Location: M�t�o Espelette
(43.3451°N, 1.4613°W)
Time: 00:12:56
(UTC+02:00)

ISS - Visible Passes

Search period start: 26 September 2017 00:00
Search period end: 06 October 2017 00:00
Orbit: 401 x 407 km, 51.6° (Epoch: 26 September)

Date Brightness Start Highest point End Pass type
(mag) Time Alt. Az. Time Alt. Az. Time Alt. Az.
26 Sep -2.2 20:24:53 10° S 20:27:14 19° SE 20:29:37 10° E visible
26 Sep -2.5 22:00:12 10° WSW 22:02:32 40° W 22:02:32 40° W visible
27 Sep -3.9 21:07:49 10° SW 21:11:04 79° SSE 21:12:41 27° ENE visible
27 Sep -0.4 22:45:02 10° WNW 22:45:22 12° WNW 22:45:22 12° WNW visible
28 Sep -2.4 21:52:16 10° W 21:55:17 33° NNW 21:55:20 33° NNW visible
29 Sep -3.1 20:59:37 10° WSW 21:02:48 50° NNW 21:05:12 16° NE visible
29 Sep -0.5 22:37:17 10° WNW 22:37:51 13° NW 22:37:51 13° NW visible
30 Sep -1.9 21:44:29 10° WNW 21:47:12 23° NNW 21:47:36 23° N visible
01 Oct -2.2 20:51:40 10° W 20:54:36 30° NNW 20:57:16 12° NE visible
01 Oct -0.5 22:29:22 10° NW 22:29:55 13° NW 22:29:55 13° NW visible
02 Oct -1.7 21:36:39 10° NW 21:39:07 19° N 21:39:31 19° N visible
03 Oct -1.8 20:43:49 10° WNW 20:46:27 22° NNW 20:49:04 10° NE visible
03 Oct -0.6 22:21:10 10° NW 22:21:43 13° NW 22:21:43 13° NW visible
04 Oct -1.7 21:28:35 10° NW 21:31:01 19° N 21:31:15 19° N visible
05 Oct -1.7 20:35:52 10° NW 20:38:18 19° N 20:40:45 10° NE visible
05 Oct -0.8 22:12:41 10° NW 22:13:23 14° NW 22:13:23 14° NW visible
